Location: Chochol
(49.7771°N, 14.9780°E)
Time: 17:54:43
(UTC+00:00)

Cosmos 1825 - Pass Details

Date: 09 April 2020
Orbit: 502 x 509 km, 82.5° (Epoch: 01 June)

Event Time Altitude Azimuth Distance (km) Brightness Sun altitude
Rises 19:59:53 0° 354° (N) 2,631 6.5 -20.1°
Reaches altitude 10° 20:02:05 10° 1° (N) 1,739 5.4 -20.3°
Enters shadow 20:05:29 45° 60° (ENE) 705 2.7 -20.7°
